Time,TemperatureF,DewpointF,PressureIn,WindDirection,WindDirectionDegrees,WindSpeedMPH,WindSpeedGustMPH,Humidity,HourlyPrecipIn,Conditions,Clouds,dailyrainin,SoftwareType,DateUTC
2013-05-24 00:04:00,45.0,36.5,30.03,WNW,302,9.2,9.2,72,0.00,BKN,FEW,0.00,WeatherDisplay:10.37,2013-05-23 23:04:00,
2013-05-24 00:09:00,45.0,36.5,30.03,WNW,302,9.2,9.2,72,0.00,BKN,FEW,0.00,WeatherDisplay:10.37,2013-05-23 23:09:00,
2013-05-24 00:14:00,45.1,36.6,30.03,WSW,258,4.7,4.7,72,0.00,BKN,FEW,0.00,WeatherDisplay:10.37,2013-05-23 23:14:00,
2013-05-24 00:19:00,45.1,36.6,30.03,West,280,8.1,8.1,72,0.00,BKN,FEW,0.00,WeatherDisplay:10.37,2013-05-23 23:19:00,
2013-05-24 00:24:00,45.5,36.6,30.03,NW,325,6.9,6.9,71,0.00,BKN,FEW,0.00,WeatherDisplay:10.37,2013-05-23 23:24:00,
2013-05-24 00:29:00,45.3,36.5,30.03,WSW,258,5.8,5.8,71,0.00,BKN,FEW,0.00,WeatherDisplay:10.37,2013-05-23 23:29:00,
2013-05-24 00:34:00,45.5,36.6,30.03,West,280,11.5,11.5,71,0.00,BKN,FEW,0.00,WeatherDisplay:10.37,2013-05-23 23:34:00,
2013-05-24 00:39:00,45.5,36.6,30.03,NW,325,5.9,5.9,71,0.00,BKN,FEW,0.00,WeatherDisplay:10.37,2013-05-23 23:39:00,
2013-05-24 00:44:00,45.5,36.6,30.04,WNW,302,9.2,9.2,71,0.00,BKN,FEW,0.00,WeatherDisplay:10.37,2013-05-23 23:44:00,
2013-05-24 00:49:00,45.5,36.6,30.04,WSW,258,6.9,6.9,71,0.00,BKN,FEW,0.00,WeatherDisplay:10.37,2013-05-23 23:49:00,
2013-05-24 00:54:00,45.5,36.6,30.04,NW,325,8.1,8.1,71,0.00,BKN,FEW,0.00,WeatherDisplay:10.37,2013-05-23 23:54:00,
2013-05-24 00:59:00,45.3,36.8,30.04,WNW,302,8.1,8.1,72,0.00,BKN,FEW,0.00,WeatherDisplay:10.37,2013-05-23 23:59:00,
2013-05-24 01:04:00,45.5,37.0,30.04,WNW,302,10.4,10.4,72,0.00,BKN,FEW,0.00,WeatherDisplay:10.37,2013-05-24 00:04:00,
2013-05-24 01:09:00,45.5,37.0,30.04,West,280,11.5,11.5,72,0.00,BKN,FEW,0.00,WeatherDisplay:10.37,2013-05-24 00:09:00,
2013-05-24 01:14:00,45.5,37.0,30.04,West,280,6.9,6.9,72,0.00,BKN,FEW,0.00,WeatherDisplay:10.37,2013-05-24 00:14:00,
2013-05-24 01:19:00,45.1,36.6,30.04,WNW,302,9.2,9.2,72,0.00,BKN,FEW,0.00,WeatherDisplay:10.37,2013-05-24 00:19:00,
2013-05-24 01:24:00,45.1,37.0,30.03,SSE,168,10.4,10.4,73,0.00,BKN,FEW,0.00,WeatherDisplay:10.37,2013-05-24 00:24:00,
2013-05-24 01:29:00,45.1,37.0,30.03,NW,325,10.4,10.4,73,0.00,BKN,FEW,0.00,WeatherDisplay:10.37,2013-05-24 00:29:00,
2013-05-24 01:34:00,45.1,37.0,30.03,West,280,8.1,8.1,73,0.00,BKN,FEW,0.00,WeatherDisplay:10.37,2013-05-24 00:34:00,
2013-05-24 01:39:00,45.0,36.8,30.03,West,280,10.4,10.4,73,0.00,BKN,FEW,0.00,WeatherDisplay:10.37,2013-05-24 00:39:00,
2013-05-24 01:44:00,44.8,36.7,30.02,West,280,6.9,6.9,73,0.00,BKN,FEW,0.00,WeatherDisplay:10.37,2013-05-24 00:44:00,
2013-05-24 01:49:00,44.8,37.0,30.02,West,280,8.1,8.1,74,0.00,BKN,FEW,0.00,WeatherDisplay:10.37,2013-05-24 00:49:00,
2013-05-24 01:54:00,44.8,37.0,30.02,WNW,302,12.7,12.7,74,0.00,BKN,FEW,0.00,WeatherDisplay:10.37,2013-05-24 00:54:00,
2013-05-24 01:59:00,44.8,37.0,30.02,NW,325,11.5,11.5,74,0.00,BKN,FEW,0.00,WeatherDisplay:10.37,2013-05-24 00:59:00,
2013-05-24 02:04:00,44.8,37.0,30.02,West,280,5.8,7.6,74,0.00,BKN,FEW,0.00,WeatherDisplay:10.37,2013-05-24 01:04:00,
2013-05-24 02:09:00,44.6,36.8,30.02,WNW,302,9.2,9.2,74,0.00,BKN,FEW,0.00,WeatherDisplay:10.37,2013-05-24 01:09:00,
2013-05-24 02:14:00,44.4,36.6,30.02,WSW,258,3.5,6.2,74,0.00,BKN,FEW,0.00,WeatherDisplay:10.37,2013-05-24 01:14:00,
2013-05-24 02:19:00,44.2,36.5,30.02,WNW,302,12.7,12.7,74,0.00,BKN,FEW,0.00,WeatherDisplay:10.37,2013-05-24 01:19:00,
2013-05-24 02:24:00,44.4,37.0,30.01,WSW,258,17.3,17.3,75,0.00,BKN,FEW,0.00,WeatherDisplay:10.37,2013-05-24 01:24:00,
2013-05-24 02:29:00,44.2,36.8,30.01,West,280,9.2,9.2,75,0.00,BKN,FEW,0.00,WeatherDisplay:10.37,2013-05-24 01:29:00,
2013-05-24 02:34:00,44.4,37.0,30.01,West,280,10.4,10.4,75,0.00,BKN,FEW,0.00,WeatherDisplay:10.37,2013-05-24 01:34:00,
2013-05-24 02:39:00,44.2,36.8,30.01,West,280,11.5,11.5,75,0.00,BKN,FEW,0.00,WeatherDisplay:10.37,2013-05-24 01:39:00,
2013-05-24 02:45:00,44.2,36.8,30.01,West,280,13.0,13.0,75,0.00,BKN,FEW,0.00,WeatherDisplay:10.37,2013-05-24 01:45:00,
2013-05-24 02:50:00,44.2,36.8,30.01,WSW,258,5.8,5.9,75,0.00,BKN,FEW,0.00,WeatherDisplay:10.37,2013-05-24 01:50:00,
2013-05-24 02:55:00,44.2,36.8,30.01,West,280,8.1,8.1,75,0.00,BKN,FEW,0.00,WeatherDisplay:10.37,2013-05-24 01:55:00,
2013-05-24 03:00:00,44.2,37.2,30.01,West,280,15.0,15.0,76,0.00,BKN,FEW,0.00,WeatherDisplay:10.37,2013-05-24 02:00:00,
2013-05-24 03:05:00,44.2,37.2,30.00,NW,325,8.6,8.6,76,0.00,BKN,FEW,0.00,WeatherDisplay:10.37,2013-05-24 02:05:00,
2013-05-24 03:10:00,44.2,37.2,30.00,NW,325,8.6,8.6,76,0.00,BKN,FEW,0.00,WeatherDisplay:10.37,2013-05-24 02:10:00,
2013-05-24 03:15:00,44.2,37.5,30.00,WSW,258,9.2,9.2,77,0.00,BKN,FEW,0.00,WeatherDisplay:10.37,2013-05-24 02:15:00,
2013-05-24 03:20:00,44.2,37.5,30.00,West,280,12.7,12.7,77,0.00,BKN,FEW,0.00,WeatherDisplay:10.37,2013-05-24 02:20:00,
2013-05-24 03:25:00,44.4,37.7,30.00,West,280,7.6,7.6,77,0.00,BKN,FEW,0.00,WeatherDisplay:10.37,2013-05-24 02:25:00,
2013-05-24 03:30:00,44.2,37.8,30.00,WNW,302,9.2,9.2,78,0.00,BKN,FEW,0.00,WeatherDisplay:10.37,2013-05-24 02:30:00,
2013-05-24 03:35:00,44.1,37.6,30.00,WSW,258,13.8,13.8,78,0.00,BKN,FEW,0.00,WeatherDisplay:10.37,2013-05-24 02:35:00,
2013-05-24 03:40:00,44.1,38.0,30.00,WNW,302,11.8,11.8,79,0.00,BKN,FEW,0.00,WeatherDisplay:10.37,2013-05-24 02:40:00,
2013-05-24 03:45:00,43.9,37.8,29.99,WSW,258,13.8,13.8,79,0.00,BKN,FEW,0.00,WeatherDisplay:10.37,2013-05-24 02:45:00,
2013-05-24 03:50:00,44.1,37.6,29.99,West,280,12.7,12.7,78,0.00,BKN,FEW,0.00,WeatherDisplay:10.37,2013-05-24 02:50:00,
2013-05-24 03:55:00,43.9,37.5,29.99,West,280,8.1,8.1,78,0.00,BKN,FEW,0.00,WeatherDisplay:10.37,2013-05-24 02:55:00,
2013-05-24 04:00:00,43.9,37.8,29.99,NW,325,10.4,10.4,79,0.00,BKN,FEW,0.00,WeatherDisplay:10.37,2013-05-24 03:00:00,
2013-05-24 04:05:00,43.9,37.8,29.99,WNW,302,9.2,9.2,79,0.00,BKN,FEW,0.00,WeatherDisplay:10.37,2013-05-24 03:05:00,
2013-05-24 04:10:00,43.9,37.8,29.99,West,280,6.9,6.9,79,0.00,BKN,FEW,0.00,WeatherDisplay:10.37,2013-05-24 03:10:00,
2013-05-24 04:15:00,43.7,37.6,29.99,WNW,302,10.7,10.7,79,0.00,BKN,FEW,0.00,WeatherDisplay:10.37,2013-05-24 03:15:00,
2013-05-24 04:20:00,43.7,37.9,29.99,SE,145,10.4,10.4,80,0.00,BKN,FEW,0.00,WeatherDisplay:10.37,2013-05-24 03:20:00,
2013-05-24 04:25:00,43.7,37.9,29.99,NW,325,10.4,10.4,80,0.00,BKN,FEW,0.00,WeatherDisplay:10.37,2013-05-24 03:25:00,
2013-05-24 04:30:00,43.5,37.8,29.99,West,280,7.1,7.1,80,0.00,BKN,FEW,0.00,WeatherDisplay:10.37,2013-05-24 03:30:00,
2013-05-24 04:35:00,43.5,37.8,29.99,WNW,302,10.4,10.4,80,0.00,BKN,FEW,0.00,WeatherDisplay:10.37,2013-05-24 03:35:00,
2013-05-24 04:40:00,43.7,37.9,29.99,WSW,258,6.9,6.9,80,0.00,BKN,FEW,0.00,WeatherDisplay:10.37,2013-05-24 03:40:00,
2013-05-24 04:45:00,43.7,37.9,29.99,WNW,302,6.9,6.9,80,0.00,BKN,FEW,0.00,WeatherDisplay:10.37,2013-05-24 03:45:00,
2013-05-24 04:50:00,43.7,37.9,29.99,WSW,258,3.5,4.3,80,0.00,BKN,FEW,0.00,WeatherDisplay:10.37,2013-05-24 03:50:00,
2013-05-24 04:55:00,43.9,38.1,29.99,West,280,8.1,8.1,80,0.00,BKN,FEW,0.00,WeatherDisplay:10.37,2013-05-24 03:55:00,
2013-05-24 05:00:00,44.1,38.3,29.99,WSW,258,8.1,8.1,80,0.00,BKN,FEW,0.00,WeatherDisplay:10.37,2013-05-24 04:00:00,
2013-05-24 05:01:00,44.1,38.3,29.99,West,280,8.1,8.1,80,0.00,BKN,FEW,0.00,WeatherDisplay:10.37,2013-05-24 04:01:00,
2013-05-24 05:06:00,44.1,38.3,29.99,WNW,302,8.1,8.1,80,0.00,BKN,FEW,0.00,WeatherDisplay:10.37,2013-05-24 04:06:00,
2013-05-24 05:11:00,44.1,38.3,29.99,SE,145,8.1,8.1,80,0.00,BKN,FEW,0.00,WeatherDisplay:10.37,2013-05-24 04:11:00,
2013-05-24 05:16:00,43.9,38.1,29.99,NW,325,10.4,10.4,80,0.00,BKN,FEW,0.00,WeatherDisplay:10.37,2013-05-24 04:16:00,
2013-05-24 05:21:00,43.7,37.9,29.98,WSW,258,8.1,8.1,80,0.00,BKN,FEW,0.00,WeatherDisplay:10.37,2013-05-24 04:21:00,
2013-05-24 05:26:00,43.9,38.1,29.98,SE,145,15.6,15.6,80,0.00,BKN,FEW,0.00,WeatherDisplay:10.37,2013-05-24 04:26:00,
2013-05-24 05:31:00,43.7,37.9,29.98,West,280,13.8,13.8,80,0.00,BKN,FEW,0.00,WeatherDisplay:10.37,2013-05-24 04:31:00,
2013-05-24 05:36:00,43.9,38.1,29.98,WNW,302,9.2,9.2,80,0.00,BKN,FEW,0.00,WeatherDisplay:10.37,2013-05-24 04:36:00,
2013-05-24 05:41:00,43.7,37.9,29.98,WSW,258,13.8,13.8,80,0.00,BKN,FEW,0.00,WeatherDisplay:10.37,2013-05-24 04:41:00,
2013-05-24 05:46:00,43.7,37.9,29.98,West,280,8.1,8.1,80,0.00,BKN,FEW,0.00,WeatherDisplay:10.37,2013-05-24 04:46:00,
2013-05-24 05:51:00,43.7,37.9,29.98,West,280,9.2,9.2,80,0.00,BKN,FEW,0.00,WeatherDisplay:10.37,2013-05-24 04:51:00,
2013-05-24 05:56:00,43.7,37.9,29.98,WNW,302,10.4,10.4,80,0.00,BKN,FEW,0.00,WeatherDisplay:10.37,2013-05-24 04:56:00,
2013-05-24 06:01:00,43.7,37.9,29.98,WSW,258,9.2,9.2,80,0.00,BKN,FEW,0.00,WeatherDisplay:10.37,2013-05-24 05:01:00,
2013-05-24 06:06:00,43.7,37.9,29.98,NW,325,6.9,6.9,80,0.00,BKN,FEW,0.00,WeatherDisplay:10.37,2013-05-24 05:06:00,
2013-05-24 06:11:00,43.7,37.9,29.98,NW,325,6.9,6.9,80,0.00,BKN,FEW,0.00,WeatherDisplay:10.37,2013-05-24 05:11:00,
2013-05-24 06:16:00,43.7,37.9,29.98,WSW,258,6.9,6.9,80,0.00,BKN,FEW,0.00,WeatherDisplay:10.37,2013-05-24 05:16:00,
2013-05-24 06:21:00,43.7,37.9,29.99,West,280,6.9,6.9,80,0.00,BKN,FEW,0.00,WeatherDisplay:10.37,2013-05-24 05:21:00,
2013-05-24 06:26:00,43.7,37.9,29.99,WSW,258,9.2,9.2,80,0.00,BKN,FEW,0.00,WeatherDisplay:10.37,2013-05-24 05:26:00,
2013-05-24 06:31:00,43.7,37.9,29.99,NW,325,13.8,13.8,80,0.00,BKN,FEW,0.00,WeatherDisplay:10.37,2013-05-24 05:31:00,
2013-05-24 06:36:00,43.9,38.1,29.99,West,280,5.8,5.8,80,0.00,BKN,FEW,0.00,WeatherDisplay:10.37,2013-05-24 05:36:00,
2013-05-24 06:41:00,43.9,38.1,29.99,West,280,9.2,9.2,80,0.00,BKN,FEW,0.00,WeatherDisplay:10.37,2013-05-24 05:41:00,
2013-05-24 06:46:00,44.2,38.1,29.99,West,280,9.2,9.2,79,0.00,BKN,FEW,0.00,WeatherDisplay:10.37,2013-05-24 05:46:00,
2013-05-24 06:51:00,44.2,38.1,29.99,WNW,302,8.1,8.1,79,0.00,BKN,FEW,0.00,WeatherDisplay:10.37,2013-05-24 05:51:00,
2013-05-24 06:56:00,44.2,38.1,29.99,WSW,258,7.1,7.1,79,0.00,BKN,FEW,0.00,WeatherDisplay:10.37,2013-05-24 05:56:00,
2013-05-24 07:01:00,44.4,38.3,29.99,NW,325,13.8,13.8,79,0.00,BKN,FEW,0.00,WeatherDisplay:10.37,2013-05-24 06:01:00,
2013-05-24 07:06:00,45.0,38.8,29.99,West,280,10.4,10.4,79,0.00,BKN,FEW,0.00,WeatherDisplay:10.37,2013-05-24 06:06:00,
2013-05-24 07:11:00,45.1,38.7,29.99,NW,325,12.7,12.7,78,0.00,BKN,FEW,0.00,WeatherDisplay:10.37,2013-05-24 06:11:00,
2013-05-24 07:16:00,45.3,38.9,29.99,NW,325,12.7,12.7,78,0.00,BKN,FEW,0.00,WeatherDisplay:10.37,2013-05-24 06:16:00,
2013-05-24 07:21:00,45.9,39.1,29.99,NW,325,13.8,13.8,77,0.00,BKN,FEW,0.00,WeatherDisplay:10.37,2013-05-24 06:21:00,
2013-05-24 07:26:00,46.6,39.8,29.99,NW,325,6.9,6.9,77,0.00,BKN,FEW,0.00,WeatherDisplay:10.37,2013-05-24 06:26:00,
2013-05-24 07:31:00,46.9,39.8,29.99,West,280,11.5,11.5,76,0.00,BKN,FEW,0.00,WeatherDisplay:10.37,2013-05-24 06:31:00,
2013-05-24 07:36:00,46.9,39.4,29.99,West,280,10.4,10.4,75,0.00,BKN,FEW,0.00,WeatherDisplay:10.37,2013-05-24 06:36:00,
2013-05-24 07:41:00,46.8,39.3,29.99,WSW,258,9.4,9.4,75,0.00,BKN,FEW,0.00,WeatherDisplay:10.37,2013-05-24 06:41:00,
2013-05-24 07:46:00,47.3,39.8,29.99,WNW,302,11.2,11.2,75,0.00,BKN,FEW,0.00,WeatherDisplay:10.37,2013-05-24 06:46:00,
2013-05-24 07:51:00,49.1,40.8,29.99,WNW,302,10.4,10.4,73,0.00,BKN,FEW,0.00,WeatherDisplay:10.37,2013-05-24 06:51:00,
2013-05-24 07:56:00,49.3,40.3,29.99,WNW,302,13.8,13.8,71,0.00,BKN,FEW,0.00,WeatherDisplay:10.37,2013-05-24 06:56:00,
2013-05-24 08:01:00,49.8,40.1,30.02,ENE,78,12.7,12.7,69,0.00,BKN,FEW,0.00,WeatherDisplay:10.37,2013-05-24 07:01:00,
2013-05-24 08:06:00,50.0,40.2,30.02,NW,325,15.0,15.0,69,0.00,BKN,FEW,0.00,WeatherDisplay:10.37,2013-05-24 07:06:00,
2013-05-24 08:11:00,49.5,39.7,30.02,NW,325,15.0,15.0,69,0.00,BKN,FEW,0.00,WeatherDisplay:10.37,2013-05-24 07:11:00,
2013-05-24 08:17:00,48.9,39.2,30.02,WSW,258,12.7,12.7,69,0.00,BKN,FEW,0.00,WeatherDisplay:10.37,2013-05-24 07:17:00,
2013-05-24 08:22:00,49.3,39.9,30.05,NW,325,9.2,9.2,70,0.00,BKN,FEW,0.00,WeatherDisplay:10.37,2013-05-24 07:22:00,
2013-05-24 08:27:00,49.3,39.5,30.05,WSW,258,6.9,7.6,69,0.00,BKN,FEW,0.00,WeatherDisplay:10.37,2013-05-24 07:27:00,
2013-05-24 08:32:00,49.1,39.4,30.05,WNW,302,11.5,11.5,69,0.00,BKN,FEW,0.00,WeatherDisplay:10.37,2013-05-24 07:32:00,
2013-05-24 08:37:00,49.3,39.2,30.05,WNW,302,15.0,15.0,68,0.00,BKN,FEW,0.00,WeatherDisplay:10.37,2013-05-24 07:37:00,
2013-05-24 08:42:00,49.8,39.3,30.04,ENE,78,12.7,12.7,67,0.00,BKN,FEW,0.00,WeatherDisplay:10.37,2013-05-24 07:42:00,
2013-05-24 08:47:00,50.2,39.6,30.04,West,280,10.4,10.4,67,0.00,BKN,FEW,0.00,WeatherDisplay:10.37,2013-05-24 07:47:00,
2013-05-24 08:52:00,50.5,39.6,30.04,NW,325,17.3,17.3,66,0.00,BKN,FEW,0.00,WeatherDisplay:10.37,2013-05-24 07:52:00,
2013-05-24 08:57:00,50.9,39.5,30.04,West,280,16.1,16.1,65,0.00,BKN,FEW,0.00,WeatherDisplay:10.37,2013-05-24 07:57:00,
2013-05-24 09:02:00,50.9,39.5,30.05,WSW,258,17.3,17.3,65,0.00,BKN,FEW,0.00,WeatherDisplay:10.37,2013-05-24 08:02:00,
2013-05-24 09:07:00,50.9,39.5,30.05,South,190,13.8,13.8,65,0.00,BKN,FEW,0.00,WeatherDisplay:10.37,2013-05-24 08:07:00,
2013-05-24 09:12:00,50.5,39.2,30.05,WNW,302,18.4,18.4,65,0.00,BKN,FEW,0.00,WeatherDisplay:10.37,2013-05-24 08:12:00,
2013-05-24 09:17:00,50.9,39.1,30.05,NW,325,9.2,9.7,64,0.00,BKN,FEW,0.00,WeatherDisplay:10.37,2013-05-24 08:17:00,
2013-05-24 09:22:00,50.2,38.5,30.06,WNW,302,17.3,17.3,64,0.00,BKN,FEW,0.00,WeatherDisplay:10.37,2013-05-24 08:22:00,
2013-05-24 09:27:00,50.5,39.2,30.06,East,100,8.1,8.7,65,0.00,BKN,FEW,0.00,WeatherDisplay:10.37,2013-05-24 08:27:00,
2013-05-24 09:32:00,51.3,39.5,30.06,NW,325,9.2,9.2,64,0.00,BKN,FEW,0.00,WeatherDisplay:10.37,2013-05-24 08:32:00,
2013-05-24 09:37:00,51.4,39.7,30.06,West,280,10.4,10.4,64,0.00,BKN,FEW,0.00,WeatherDisplay:10.37,2013-05-24 08:37:00,
2013-05-24 09:42:00,51.6,39.0,30.07,WNW,302,13.8,13.8,62,0.00,BKN,FEW,0.00,WeatherDisplay:10.37,2013-05-24 08:42:00,
2013-05-24 09:47:00,52.0,39.4,30.07,WSW,258,16.5,16.5,62,0.00,BKN,FEW,0.00,WeatherDisplay:10.37,2013-05-24 08:47:00,
2013-05-24 09:52:00,52.2,39.5,30.07,NW,325,17.3,17.3,62,0.00,BKN,FEW,0.00,WeatherDisplay:10.37,2013-05-24 08:52:00,
2013-05-24 09:57:00,52.3,39.7,30.07,West,280,15.0,15.0,62,0.00,BKN,FEW,0.00,WeatherDisplay:10.37,2013-05-24 08:57:00,
2013-05-24 10:02:00,52.2,39.5,30.08,NW,325,15.0,15.0,62,0.00,BKN,FEW,0.00,WeatherDisplay:10.37,2013-05-24 09:02:00,
2013-05-24 10:07:00,51.4,38.8,30.08,NW,325,12.7,12.7,62,0.00,BKN,FEW,0.00,WeatherDisplay:10.37,2013-05-24 09:07:00,
2013-05-24 10:12:00,51.3,39.1,30.08,NW,325,11.5,11.5,63,0.00,BKN,FEW,0.00,WeatherDisplay:10.37,2013-05-24 09:12:00,
2013-05-24 10:17:00,51.3,39.5,30.08,NW,325,11.5,11.5,64,0.00,BKN,FEW,0.00,WeatherDisplay:10.37,2013-05-24 09:17:00,
2013-05-24 10:22:00,50.7,39.0,30.07,West,280,12.7,12.7,64,0.00,BKN,FEW,0.00,WeatherDisplay:10.37,2013-05-24 09:22:00,
2013-05-24 10:27:00,51.4,40.1,30.07,NW,325,5.8,7.6,65,0.00,BKN,FEW,0.00,WeatherDisplay:10.37,2013-05-24 09:27:00,
2013-05-24 10:32:00,52.7,40.9,30.07,NW,325,16.1,16.1,64,0.00,BKN,FEW,0.00,WeatherDisplay:10.37,2013-05-24 09:32:00,
2013-05-24 10:37:00,52.3,40.5,30.07,NW,325,9.5,9.5,64,0.00,BKN,FEW,0.00,WeatherDisplay:10.37,2013-05-24 09:37:00,
2013-05-24 10:42:00,53.1,40.8,30.09,WSW,258,11.5,11.5,63,0.00,BKN,FEW,0.00,WeatherDisplay:10.37,2013-05-24 09:42:00,
2013-05-24 10:47:00,53.4,40.3,30.09,NW,325,15.3,15.3,61,0.00,BKN,FEW,0.00,WeatherDisplay:10.37,2013-05-24 09:47:00,
2013-05-24 10:52:00,53.2,39.7,30.09,West,280,18.4,18.4,60,0.00,BKN,FEW,0.00,WeatherDisplay:10.37,2013-05-24 09:52:00,
2013-05-24 10:57:00,53.6,40.0,30.09,NW,325,10.4,11.1,60,0.00,BKN,FEW,0.00,WeatherDisplay:10.37,2013-05-24 09:57:00,
2013-05-24 11:02:00,54.1,40.6,30.10,West,280,11.5,11.5,60,0.00,BKN,FEW,0.00,WeatherDisplay:10.37,2013-05-24 10:02:00,
2013-05-24 11:07:00,54.1,40.6,30.10,East,100,18.4,18.4,60,0.00,BKN,FEW,0.00,WeatherDisplay:10.37,2013-05-24 10:07:00,
2013-05-24 11:12:00,54.0,40.4,30.10,NW,325,8.1,8.5,60,0.00,BKN,FEW,0.00,WeatherDisplay:10.37,2013-05-24 10:12:00,
2013-05-24 11:17:00,53.6,40.0,30.10,NW,325,10.4,10.4,60,0.00,BKN,FEW,0.00,WeatherDisplay:10.37,2013-05-24 10:17:00,
2013-05-24 11:22:00,52.9,39.8,30.10,West,280,6.9,6.9,61,0.00,BKN,FEW,0.00,WeatherDisplay:10.37,2013-05-24 10:22:00,
2013-05-24 11:27:00,52.9,39.4,30.10,NW,325,16.1,16.1,60,0.00,BKN,FEW,0.00,WeatherDisplay:10.37,2013-05-24 10:27:00,
2013-05-24 11:32:00,54.3,41.1,30.10,WSW,258,10.5,10.5,61,0.00,BKN,FEW,0.00,WeatherDisplay:10.37,2013-05-24 10:32:00,
2013-05-24 11:37:00,54.7,41.1,30.10,NW,325,13.9,13.9,60,0.00,BKN,FEW,0.00,WeatherDisplay:10.37,2013-05-24 10:37:00,
2013-05-24 11:42:00,54.3,40.7,30.11,WSW,258,13.8,13.8,60,0.00,BKN,FEW,0.00,WeatherDisplay:10.37,2013-05-24 10:42:00,
2013-05-24 11:47:00,54.3,40.7,30.11,NW,325,13.8,13.8,60,0.00,BKN,FEW,0.00,WeatherDisplay:10.37,2013-05-24 10:47:00,
2013-05-24 11:52:00,53.6,40.0,30.11,WSW,258,7.0,7.0,60,0.00,BKN,FEW,0.00,WeatherDisplay:10.37,2013-05-24 10:52:00,
2013-05-24 11:57:00,53.4,39.9,30.11,WSW,258,10.4,10.4,60,0.00,BKN,FEW,0.00,WeatherDisplay:10.37,2013-05-24 10:57:00,
2013-05-24 12:02:00,52.9,39.4,30.11,NW,325,10.4,10.4,60,0.00,BKN,FEW,0.00,WeatherDisplay:10.37,2013-05-24 11:02:00,
2013-05-24 12:07:00,52.9,39.4,30.11,NW,325,8.1,8.1,60,0.00,BKN,FEW,0.00,WeatherDisplay:10.37,2013-05-24 11:07:00,
2013-05-24 12:12:00,52.9,39.8,30.11,NW,325,8.1,8.1,61,0.00,BKN,FEW,0.00,WeatherDisplay:10.37,2013-05-24 11:12:00,
2013-05-24 12:17:00,52.9,39.8,30.11,WNW,302,12.7,12.7,61,0.00,BKN,FEW,0.00,WeatherDisplay:10.37,2013-05-24 11:17:00,
2013-05-24 12:22:00,53.4,40.3,30.10,WNW,302,6.9,7.4,61,0.00,BKN,FEW,0.00,WeatherDisplay:10.37,2013-05-24 11:22:00,
2013-05-24 12:27:00,53.4,40.3,30.10,East,100,13.8,13.8,61,0.00,BKN,FEW,0.00,WeatherDisplay:10.37,2013-05-24 11:27:00,
2013-05-24 12:32:00,53.4,40.3,30.10,WSW,258,16.4,16.4,61,0.00,BKN,FEW,0.00,WeatherDisplay:10.37,2013-05-24 11:32:00,
2013-05-24 12:37:00,53.4,40.7,30.10,West,280,5.8,7.6,62,0.00,BKN,FEW,0.00,WeatherDisplay:10.37,2013-05-24 11:37:00,
2013-05-24 12:42:00,53.2,40.5,30.11,NW,325,6.9,7.1,62,0.00,BKN,FEW,0.00,WeatherDisplay:10.37,2013-05-24 11:42:00,
2013-05-24 12:47:00,53.1,40.0,30.11,NE,55,8.1,8.1,61,0.00,BKN,FEW,0.00,WeatherDisplay:10.37,2013-05-24 11:47:00,
2013-05-24 12:52:00,53.1,40.4,30.11,NW,325,5.8,6.5,62,0.00,BKN,FEW,0.00,WeatherDisplay:10.37,2013-05-24 11:52:00,
2013-05-24 12:57:00,53.4,40.7,30.11,NW,325,11.5,11.5,62,0.00,BKN,FEW,0.00,WeatherDisplay:10.37,2013-05-24 11:57:00,
2013-05-24 13:02:00,54.3,41.6,30.11,WNW,302,6.9,6.9,62,0.00,BKN,FEW,0.00,WeatherDisplay:10.37,2013-05-24 12:02:00,
2013-05-24 13:07:00,55.0,41.4,30.11,WSW,258,10.4,10.4,60,0.00,BKN,FEW,0.00,WeatherDisplay:10.37,2013-05-24 12:07:00,
2013-05-24 13:12:00,55.2,41.6,30.11,WNW,302,13.8,13.8,60,0.00,BKN,FEW,0.00,WeatherDisplay:10.37,2013-05-24 12:12:00,
2013-05-24 13:17:00,54.9,41.7,30.11,WNW,302,5.1,7.5,61,0.00,BKN,FEW,0.00,WeatherDisplay:10.37,2013-05-24 12:17:00,
2013-05-24 13:22:00,55.2,42.0,30.13,WNW,302,8.1,8.1,61,0.00,BKN,FEW,0.00,WeatherDisplay:10.37,2013-05-24 12:22:00,
2013-05-24 13:27:00,55.6,41.5,30.13,WSW,258,13.8,13.8,59,0.00,BKN,FEW,0.00,WeatherDisplay:10.37,2013-05-24 12:27:00,
2013-05-24 13:32:00,55.8,41.6,30.13,WNW,302,18.4,18.4,59,0.00,BKN,FEW,0.00,WeatherDisplay:10.37,2013-05-24 12:32:00,
2013-05-24 13:37:00,55.8,41.6,30.13,NW,325,11.5,11.5,59,0.00,BKN,FEW,0.00,WeatherDisplay:10.37,2013-05-24 12:37:00,
2013-05-24 13:42:00,56.1,41.5,30.14,NW,325,13.8,13.8,58,0.00,BKN,FEW,0.00,WeatherDisplay:10.37,2013-05-24 12:42:00,
2013-05-24 13:47:00,55.9,40.5,30.14,West,280,9.2,9.2,56,0.00,BKN,FEW,0.00,WeatherDisplay:10.37,2013-05-24 12:47:00,
2013-05-24 13:53:00,55.9,40.9,30.14,NW,325,11.5,11.5,57,0.00,BKN,FEW,0.00,WeatherDisplay:10.37,2013-05-24 12:53:00,
2013-05-24 13:58:00,56.3,41.3,30.14,WSW,258,6.9,7.6,57,0.00,BKN,FEW,0.00,WeatherDisplay:10.37,2013-05-24 12:58:00,
2013-05-24 14:03:00,56.5,41.4,30.13,NW,325,15.0,15.0,57,0.00,SCT,FEW,0.00,WeatherDisplay:10.37,2013-05-24 13:03:00,
2013-05-24 14:08:00,56.5,41.4,30.13,NW,325,11.5,11.5,57,0.00,SCT,FEW,0.00,WeatherDisplay:10.37,2013-05-24 13:08:00,
2013-05-24 14:13:00,56.7,41.1,30.13,NW,325,11.5,11.5,56,0.00,SCT,FEW,0.00,WeatherDisplay:10.37,2013-05-24 13:13:00,
2013-05-24 14:18:00,56.8,40.8,30.13,East,100,13.2,13.2,55,0.00,SCT,FEW,0.00,WeatherDisplay:10.37,2013-05-24 13:18:00,
2013-05-24 14:23:00,56.7,41.1,30.15,ENE,78,15.0,15.0,56,0.00,SCT,FEW,0.00,WeatherDisplay:10.37,2013-05-24 13:23:00,
2013-05-24 14:28:00,57.0,41.5,30.15,NW,325,8.8,8.8,56,0.00,SCT,FEW,0.00,WeatherDisplay:10.37,2013-05-24 13:28:00,
2013-05-24 14:33:00,57.0,41.5,30.15,East,100,10.4,10.4,56,0.00,SCT,FEW,0.00,WeatherDisplay:10.37,2013-05-24 13:33:00,
2013-05-24 14:38:00,56.7,40.7,30.15,NW,325,5.8,7.5,55,0.00,SCT,FEW,0.00,WeatherDisplay:10.37,2013-05-24 13:38:00,
2013-05-24 14:43:00,56.8,41.3,30.15,NW,325,12.7,12.7,56,0.00,SCT,FEW,0.00,WeatherDisplay:10.37,2013-05-24 13:43:00,
2013-05-24 14:48:00,56.8,40.8,30.15,NW,325,10.4,10.4,55,0.00,SCT,FEW,0.00,WeatherDisplay:10.37,2013-05-24 13:48:00,
2013-05-24 14:53:00,57.0,41.5,30.15,NW,325,10.4,10.4,56,0.00,SCT,FEW,0.00,WeatherDisplay:10.37,2013-05-24 13:53:00,
2013-05-24 14:58:00,57.0,41.5,30.15,WNW,302,11.5,11.5,56,0.00,SCT,FEW,0.00,WeatherDisplay:10.37,2013-05-24 13:58:00,
2013-05-24 15:03:00,57.0,40.5,30.16,NW,325,11.5,11.5,54,0.00,SCT,FEW,0.00,WeatherDisplay:10.37,2013-05-24 14:03:00,
2013-05-24 15:08:00,57.4,41.3,30.16,WNW,302,8.1,8.1,55,0.00,SCT,FEW,0.00,WeatherDisplay:10.37,2013-05-24 14:08:00,
2013-05-24 15:13:00,57.2,40.7,30.16,ENE,78,9.2,9.2,54,0.00,SCT,FEW,0.00,WeatherDisplay:10.37,2013-05-24 14:13:00,
2013-05-24 15:18:00,57.0,40.0,30.16,WNW,302,9.2,9.2,53,0.00,SCT,FEW,0.00,WeatherDisplay:10.37,2013-05-24 14:18:00,
2013-05-24 15:23:00,57.0,40.0,30.17,NW,325,9.3,9.3,53,0.00,SCT,FEW,0.00,WeatherDisplay:10.37,2013-05-24 14:23:00,
2013-05-24 15:28:00,56.5,39.5,30.17,NW,325,9.8,9.8,53,0.00,SCT,FEW,0.00,WeatherDisplay:10.37,2013-05-24 14:28:00,
2013-05-24 15:33:00,56.5,39.5,30.17,SE,145,12.8,12.8,53,0.00,SCT,FEW,0.00,WeatherDisplay:10.37,2013-05-24 14:33:00,
2013-05-24 15:38:00,57.0,40.0,30.17,NW,325,6.9,6.9,53,0.00,SCT,FEW,0.00,WeatherDisplay:10.37,2013-05-24 14:38:00,
2013-05-24 15:43:00,57.2,40.7,30.17,NW,325,9.3,9.3,54,0.00,SCT,FEW,0.00,WeatherDisplay:10.37,2013-05-24 14:43:00,
2013-05-24 15:48:00,57.7,40.7,30.17,NW,325,9.2,9.2,53,0.00,SCT,FEW,0.00,WeatherDisplay:10.37,2013-05-24 14:48:00,
2013-05-24 15:53:00,57.7,39.7,30.17,East,100,20.7,20.7,51,0.00,SCT,FEW,0.00,WeatherDisplay:10.37,2013-05-24 14:53:00,
2013-05-24 15:58:00,57.7,40.2,30.17,NW,325,9.2,9.2,52,0.00,SCT,FEW,0.00,WeatherDisplay:10.37,2013-05-24 14:58:00,
2013-05-24 16:03:00,57.9,39.4,30.18,NW,325,10.4,10.4,50,0.00,SCT,FEW,0.00,WeatherDisplay:10.37,2013-05-24 15:03:00,
2013-05-24 16:08:00,58.1,40.1,30.18,ENE,78,5.8,5.8,51,0.00,SCT,FEW,0.00,WeatherDisplay:10.37,2013-05-24 15:08:00,
2013-05-24 16:13:00,58.1,40.1,30.18,West,280,8.1,8.1,51,0.00,SCT,FEW,0.00,WeatherDisplay:10.37,2013-05-24 15:13:00,
2013-05-24 16:18:00,57.9,39.9,30.18,WNW,302,12.2,12.2,51,0.00,SCT,FEW,0.00,WeatherDisplay:10.37,2013-05-24 15:18:00,
2013-05-24 16:23:00,57.6,39.0,30.19,NW,325,11.5,11.5,50,0.00,SCT,FEW,0.00,WeatherDisplay:10.37,2013-05-24 15:23:00,
2013-05-24 16:28:00,57.7,40.2,30.19,NW,325,10.4,10.4,52,0.00,SCT,FEW,0.00,WeatherDisplay:10.37,2013-05-24 15:28:00,
2013-05-24 16:33:00,57.7,39.7,30.19,East,100,8.1,8.1,51,0.00,SCT,FEW,0.00,WeatherDisplay:10.37,2013-05-24 15:33:00,
2013-05-24 16:38:00,57.7,39.7,30.19,NW,325,11.5,11.5,51,0.00,SCT,FEW,0.00,WeatherDisplay:10.37,2013-05-24 15:38:00,
2013-05-24 16:43:00,57.4,39.4,30.19,NW,325,16.1,16.1,51,0.00,SCT,FEW,0.00,WeatherDisplay:10.37,2013-05-24 15:43:00,
2013-05-24 16:48:00,57.2,39.7,30.19,NW,325,8.1,8.1,52,0.00,SCT,FEW,0.00,WeatherDisplay:10.37,2013-05-24 15:48:00,
2013-05-24 16:53:00,57.2,39.7,30.19,ENE,78,10.4,10.4,52,0.00,SCT,FEW,0.00,WeatherDisplay:10.37,2013-05-24 15:53:00,
2013-05-24 16:58:00,57.4,40.4,30.19,ENE,78,7.5,7.5,53,0.00,SCT,FEW,0.00,WeatherDisplay:10.37,2013-05-24 15:58:00,
2013-05-24 17:03:00,57.7,40.7,30.20,East,100,11.5,11.5,53,0.00,SCT,FEW,0.00,WeatherDisplay:10.37,2013-05-24 16:03:00,
2013-05-24 17:08:00,57.7,40.2,30.20,ENE,78,5.4,5.6,52,0.00,SCT,FEW,0.00,WeatherDisplay:10.37,2013-05-24 16:08:00,
2013-05-24 17:13:00,57.7,40.7,30.20,ENE,78,9.2,9.2,53,0.00,SCT,FEW,0.00,WeatherDisplay:10.37,2013-05-24 16:13:00,
2013-05-24 17:18:00,57.4,39.9,30.20,East,100,8.1,8.1,52,0.00,SCT,FEW,0.00,WeatherDisplay:10.37,2013-05-24 16:18:00,
2013-05-24 17:23:00,57.6,40.5,30.20,ESE,122,10.4,10.4,53,0.00,SCT,FEW,0.00,WeatherDisplay:10.37,2013-05-24 16:23:00,
2013-05-24 17:28:00,57.7,40.2,30.20,East,100,6.9,6.9,52,0.00,SCT,FEW,0.00,WeatherDisplay:10.37,2013-05-24 16:28:00,
2013-05-24 17:33:00,57.4,39.9,30.20,SE,145,8.1,8.1,52,0.00,SCT,FEW,0.00,WeatherDisplay:10.37,2013-05-24 16:33:00,
2013-05-24 17:38:00,57.2,40.2,30.20,ENE,78,14.2,14.2,53,0.00,SCT,FEW,0.00,WeatherDisplay:10.37,2013-05-24 16:38:00,
2013-05-24 17:43:00,57.2,40.2,30.20,East,100,11.5,11.5,53,0.00,SCT,FEW,0.00,WeatherDisplay:10.37,2013-05-24 16:43:00,
2013-05-24 17:48:00,57.0,40.5,30.20,WNW,302,6.9,6.9,54,0.00,SCT,FEW,0.00,WeatherDisplay:10.37,2013-05-24 16:48:00,
2013-05-24 17:53:00,56.7,40.2,30.20,NW,325,6.9,6.9,54,0.00,SCT,FEW,0.00,WeatherDisplay:10.37,2013-05-24 16:53:00,
2013-05-24 17:58:00,56.7,39.7,30.20,ENE,78,8.1,8.1,53,0.00,SCT,FEW,0.00,WeatherDisplay:10.37,2013-05-24 16:58:00,
2013-05-24 18:03:00,56.7,39.7,30.21,East,100,6.9,6.9,53,0.00,SCT,FEW,0.00,WeatherDisplay:10.37,2013-05-24 17:03:00,
2013-05-24 18:08:00,56.1,38.7,30.21,East,100,11.5,11.5,52,0.00,SCT,FEW,0.00,WeatherDisplay:10.37,2013-05-24 17:08:00,
2013-05-24 18:13:00,56.1,39.2,30.21,East,100,8.1,8.1,53,0.00,SCT,FEW,0.00,WeatherDisplay:10.37,2013-05-24 17:13:00,
2013-05-24 18:18:00,55.9,39.5,30.21,NW,325,4.6,4.6,54,0.00,SCT,FEW,0.00,WeatherDisplay:10.37,2013-05-24 17:18:00,
2013-05-24 18:23:00,55.9,39.5,30.22,East,100,6.9,6.9,54,0.00,SCT,FEW,0.00,WeatherDisplay:10.37,2013-05-24 17:23:00,
2013-05-24 18:28:00,55.8,39.4,30.22,NW,325,8.1,8.1,54,0.00,SCT,FEW,0.00,WeatherDisplay:10.37,2013-05-24 17:28:00,
2013-05-24 18:33:00,55.8,39.4,30.22,ENE,78,4.6,4.6,54,0.00,SCT,FEW,0.00,WeatherDisplay:10.37,2013-05-24 17:33:00,
2013-05-24 18:38:00,55.6,39.7,30.22,NW,325,6.9,6.9,55,0.00,SCT,FEW,0.00,WeatherDisplay:10.37,2013-05-24 17:38:00,
2013-05-24 18:43:00,55.4,39.5,30.22,NW,325,9.2,9.2,55,0.00,SCT,FEW,0.00,WeatherDisplay:10.37,2013-05-24 17:43:00,
2013-05-24 18:48:00,55.0,39.6,30.22,WSW,258,3.5,4.8,56,0.00,SCT,FEW,0.00,WeatherDisplay:10.37,2013-05-24 17:48:00,
2013-05-24 18:53:00,55.0,39.6,30.22,East,100,8.1,8.1,56,0.00,SCT,FEW,0.00,WeatherDisplay:10.37,2013-05-24 17:53:00,
2013-05-24 18:58:00,55.0,40.1,30.22,East,100,7.6,7.6,57,0.00,SCT,FEW,0.00,WeatherDisplay:10.37,2013-05-24 17:58:00,
2013-05-24 19:03:00,55.0,40.5,30.22,East,100,6.9,6.9,58,0.00,SCT,FEW,0.00,WeatherDisplay:10.37,2013-05-24 18:03:00,
2013-05-24 19:08:00,54.7,40.2,30.22,ENE,78,4.6,4.6,58,0.00,SCT,FEW,0.00,WeatherDisplay:10.37,2013-05-24 18:08:00,
2013-05-24 19:14:00,54.5,40.5,30.22,ENE,78,7.4,7.4,59,0.00,SCT,FEW,0.00,WeatherDisplay:10.37,2013-05-24 18:14:00,
2013-05-24 19:19:00,54.3,40.3,30.22,SE,145,8.8,8.8,59,0.00,SCT,FEW,0.00,WeatherDisplay:10.37,2013-05-24 18:19:00,
2013-05-24 19:24:00,54.3,40.3,30.24,NW,325,6.9,6.9,59,0.00,SCT,FEW,0.00,WeatherDisplay:10.37,2013-05-24 18:24:00,
2013-05-24 19:29:00,54.0,40.4,30.24,West,280,2.8,3.1,60,0.00,SCT,FEW,0.00,WeatherDisplay:10.37,2013-05-24 18:29:00,
2013-05-24 19:34:00,54.0,40.4,30.24,East,100,8.1,8.1,60,0.00,SCT,FEW,0.00,WeatherDisplay:10.37,2013-05-24 18:34:00,
2013-05-24 19:39:00,54.1,40.6,30.24,NNW,348,4.6,4.6,60,0.00,SCT,FEW,0.00,WeatherDisplay:10.37,2013-05-24 18:39:00,
2013-05-24 19:44:00,54.1,40.6,30.22,East,100,3.5,3.5,60,0.00,SCT,FEW,0.00,WeatherDisplay:10.37,2013-05-24 18:44:00,
2013-05-24 19:49:00,54.1,40.6,30.22,East,100,6.9,6.9,60,0.00,SCT,FEW,0.00,WeatherDisplay:10.37,2013-05-24 18:49:00,
2013-05-24 19:54:00,53.8,39.8,30.22,East,100,6.2,6.2,59,0.00,SCT,FEW,0.00,WeatherDisplay:10.37,2013-05-24 18:54:00,
2013-05-24 19:59:00,53.8,39.8,30.22,ENE,78,3.5,3.6,59,0.00,SCT,FEW,0.00,WeatherDisplay:10.37,2013-05-24 18:59:00,
2013-05-24 20:04:00,53.6,39.6,30.23,ENE,78,3.5,3.5,59,0.00,SCT,FEW,0.00,WeatherDisplay:10.37,2013-05-24 19:04:00,
2013-05-24 20:09:00,53.4,39.9,30.23,East,100,3.5,3.5,60,0.00,SCT,FEW,0.00,WeatherDisplay:10.37,2013-05-24 19:09:00,
2013-05-24 20:14:00,53.2,39.7,30.23,NW,325,4.6,4.6,60,0.00,SCT,FEW,0.00,WeatherDisplay:10.37,2013-05-24 19:14:00,
2013-05-24 20:19:00,53.2,40.1,30.23,East,100,2.3,2.3,61,0.00,SCT,FEW,0.00,WeatherDisplay:10.37,2013-05-24 19:19:00,
2013-05-24 20:24:00,53.1,40.0,30.23,West,280,1.4,1.6,61,0.00,SCT,FEW,0.00,WeatherDisplay:10.37,2013-05-24 19:24:00,
2013-05-24 20:29:00,52.9,39.8,30.23,ENE,78,3.5,3.5,61,0.00,SCT,FEW,0.00,WeatherDisplay:10.37,2013-05-24 19:29:00,
2013-05-24 20:34:00,52.7,40.0,30.23,NW,325,1.2,1.6,62,0.00,SCT,FEW,0.00,WeatherDisplay:10.37,2013-05-24 19:34:00,
2013-05-24 20:39:00,52.7,40.0,30.23,ENE,78,2.3,2.3,62,0.00,SCT,FEW,0.00,WeatherDisplay:10.37,2013-05-24 19:39:00,
2013-05-24 20:44:00,52.3,39.7,30.24,East,100,2.3,2.3,62,0.00,SCT,FEW,0.00,WeatherDisplay:10.37,2013-05-24 19:44:00,
2013-05-24 20:49:00,52.2,39.5,30.24,WNW,302,3.5,3.5,62,0.00,SCT,FEW,0.00,WeatherDisplay:10.37,2013-05-24 19:49:00,
2013-05-24 20:54:00,52.2,39.5,30.24,NW,325,2.3,2.3,62,0.00,SCT,FEW,0.00,WeatherDisplay:10.37,2013-05-24 19:54:00,
2013-05-24 20:59:00,52.0,39.8,30.24,NW,325,2.3,2.3,63,0.00,SCT,FEW,0.00,WeatherDisplay:10.37,2013-05-24 19:59:00,
2013-05-24 21:04:00,51.8,39.6,30.23,NW,325,2.3,2.3,63,0.00,SCT,FEW,0.00,WeatherDisplay:10.37,2013-05-24 20:04:00,
2013-05-24 21:09:00,51.6,39.4,30.23,NW,325,0.0,1.2,63,0.00,SCT,FEW,0.00,WeatherDisplay:10.37,2013-05-24 20:09:00,
2013-05-24 21:14:00,51.3,39.1,30.23,NW,325,2.3,2.3,63,0.00,SCT,FEW,0.00,WeatherDisplay:10.37,2013-05-24 20:14:00,
2013-05-24 21:19:00,51.3,39.1,30.23,NW,325,2.3,2.3,63,0.00,SCT,FEW,0.00,WeatherDisplay:10.37,2013-05-24 20:19:00,
2013-05-24 21:24:00,51.1,39.3,30.23,NW,325,1.2,1.2,64,0.00,SCT,FEW,0.00,WeatherDisplay:10.37,2013-05-24 20:24:00,
2013-05-24 21:29:00,50.9,39.1,30.23,NW,325,0.0,1.2,64,0.00,SCT,FEW,0.00,WeatherDisplay:10.37,2013-05-24 20:29:00,
2013-05-24 21:34:00,50.7,39.4,30.23,NW,325,1.2,1.2,65,0.00,SCT,FEW,0.00,WeatherDisplay:10.37,2013-05-24 20:34:00,
2013-05-24 21:39:00,50.5,39.2,30.23,NW,325,2.3,2.3,65,0.00,SCT,FEW,0.00,WeatherDisplay:10.37,2013-05-24 20:39:00,
2013-05-24 21:44:00,50.5,39.6,30.23,WNW,302,1.2,1.2,66,0.00,SCT,FEW,0.00,WeatherDisplay:10.37,2013-05-24 20:44:00,
2013-05-24 21:49:00,50.2,39.3,30.23,NW,325,1.2,1.2,66,0.00,SCT,FEW,0.00,WeatherDisplay:10.37,2013-05-24 20:49:00,
2013-05-24 21:54:00,50.2,39.3,30.23,West,280,1.4,1.4,66,0.00,SCT,FEW,0.00,WeatherDisplay:10.37,2013-05-24 20:54:00,
2013-05-24 21:59:00,50.2,39.3,30.23,WNW,302,2.3,2.3,66,0.00,SCT,FEW,0.00,WeatherDisplay:10.37,2013-05-24 20:59:00,
2013-05-24 22:04:00,49.8,38.9,30.25,WNW,302,2.3,2.3,66,0.00,BKN,FEW,0.00,WeatherDisplay:10.37,2013-05-24 21:04:00,
2013-05-24 22:09:00,49.8,39.3,30.25,WNW,302,1.2,1.2,67,0.00,BKN,FEW,0.00,WeatherDisplay:10.37,2013-05-24 21:09:00,
2013-05-24 22:14:00,49.8,39.3,30.25,NW,325,2.3,2.3,67,0.00,BKN,FEW,0.00,WeatherDisplay:10.37,2013-05-24 21:14:00,
2013-05-24 22:19:00,49.8,39.3,30.25,NW,325,2.3,2.3,67,0.00,BKN,FEW,0.00,WeatherDisplay:10.37,2013-05-24 21:19:00,
2013-05-24 22:24:00,49.5,39.0,30.24,NW,325,0.0,1.1,67,0.00,BKN,FEW,0.00,WeatherDisplay:10.37,2013-05-24 21:24:00,
2013-05-24 22:29:00,49.3,39.2,30.24,NW,325,2.3,2.3,68,0.00,BKN,FEW,0.00,WeatherDisplay:10.37,2013-05-24 21:29:00,
2013-05-24 22:34:00,49.3,39.2,30.24,NW,325,1.2,1.2,68,0.00,BKN,FEW,0.00,WeatherDisplay:10.37,2013-05-24 21:34:00,
2013-05-24 22:39:00,49.3,39.2,30.24,NW,325,2.3,2.3,68,0.00,BKN,FEW,0.00,WeatherDisplay:10.37,2013-05-24 21:39:00,
2013-05-24 22:44:00,49.1,39.0,30.24,NW,325,1.7,1.7,68,0.00,BKN,FEW,0.00,WeatherDisplay:10.37,2013-05-24 21:44:00,
2013-05-24 22:49:00,48.9,39.2,30.24,NW,325,2.3,2.3,69,0.00,BKN,FEW,0.00,WeatherDisplay:10.37,2013-05-24 21:49:00,
2013-05-24 22:54:00,49.1,39.4,30.24,West,280,1.1,1.1,69,0.00,BKN,FEW,0.00,WeatherDisplay:10.37,2013-05-24 21:54:00,
2013-05-24 22:59:00,48.7,39.0,30.24,NW,325,0.0,0.4,69,0.00,BKN,FEW,0.00,WeatherDisplay:10.37,2013-05-24 21:59:00,
2013-05-24 23:04:00,48.7,39.4,30.24,NW,325,0.0,0.1,70,0.00,BKN,FEW,0.00,WeatherDisplay:10.37,2013-05-24 22:04:00,
2013-05-24 23:09:00,48.6,39.2,30.24,NW,325,0.0,0.0,70,0.00,BKN,FEW,0.00,WeatherDisplay:10.37,2013-05-24 22:09:00,
2013-05-24 23:14:00,48.6,39.6,30.24,NW,325,0.0,0.1,71,0.00,BKN,FEW,0.00,WeatherDisplay:10.37,2013-05-24 22:14:00,
2013-05-24 23:19:00,48.4,39.4,30.24,East,100,0.0,0.1,71,0.00,BKN,FEW,0.00,WeatherDisplay:10.37,2013-05-24 22:19:00,
2013-05-24 23:24:00,48.4,39.8,30.24,NW,325,0.0,0.0,72,0.00,BKN,FEW,0.00,WeatherDisplay:10.37,2013-05-24 22:24:00,
2013-05-24 23:29:00,48.4,39.8,30.24,NW,325,0.0,0.0,72,0.00,BKN,FEW,0.00,WeatherDisplay:10.37,2013-05-24 22:29:00,
2013-05-24 23:34:00,47.8,39.6,30.24,WNW,302,0.0,0.0,73,0.00,BKN,FEW,0.00,WeatherDisplay:10.37,2013-05-24 22:34:00,
2013-05-24 23:39:00,47.8,39.6,30.24,WNW,302,0.0,0.0,73,0.00,BKN,FEW,0.00,WeatherDisplay:10.37,2013-05-24 22:39:00,
2013-05-24 23:44:00,47.7,39.4,30.24,WNW,302,0.0,0.0,73,0.00,BKN,FEW,0.00,WeatherDisplay:10.37,2013-05-24 22:44:00,
2013-05-24 23:49:00,47.3,39.4,30.24,WNW,302,1.2,1.2,74,0.00,BKN,FEW,0.00,WeatherDisplay:10.37,2013-05-24 22:49:00,
2013-05-24 23:54:00,47.3,39.8,30.24,West,280,0.0,0.4,75,0.00,BKN,FEW,0.00,WeatherDisplay:10.37,2013-05-24 22:54:00,
2013-05-24 23:59:00,47.1,39.6,30.24,West,280,0.0,0.2,75,0.00,BKN,FEW,0.00,WeatherDisplay:10.37,2013-05-24 22:59:00,